JI1PZF-2 Weather Reports


Display with metric or nautical units.
time (UTC)temp
F
wind
direction
speed
MPH
gust
MPH
rain 1hr
in
rain 24hr
in
rain mn
in
humidity
%
barometer
mb
20260505140320 64 216 3.0 7.0 0.00 0.00 0.00 50 1002.5
20260505124331 64 112 3.0 9.0 0.00 0.00 0.00 47 1002.3
20260505123324 64 132 2.0 12.0 0.00 0.00 0.00 47 1002.4
20260505122328 63 98 3.0 8.0 0.00 0.00 0.00 47 1002.3
20260505121332 63 115 2.0 7.0 0.00 0.00 0.00 46 1002.3
20260505120332 63 56 3.0 6.0 0.00 0.00 0.00 46 1002.3
20260505115327 63 245 2.0 15.0 0.00 0.00 0.00 46 1002.2
20260505114351 63 93 2.0 10.0 0.00 0.00 0.00 46 1002.1
20260505113334 63 295 2.0 6.0 0.00 0.00 0.00 45 1002.2
20260505112328 63 272 1.0 11.0 0.00 0.00 0.00 45 1002.1
20260505111330 64 136 5.0 9.0 0.00 0.00 0.00 45 1002.1
20260505110359 64 263 1.0 10.0 0.00 0.00 0.00 45 1002.0
20260505101313 65 297 2.0 9.0 0.00 0.00 0.00 36 1001.5
20260505100339 65 103 1.0 13.0 0.00 0.00 0.00 34 1001.3
20260505095354 65 100 4.0 10.0 0.00 0.00 0.00 34 1001.1
20260505094333 65 350 0.0 8.0 0.00 0.00 0.00 31 1001.3
20260505093313 66 343 4.0 9.0 0.00 0.00 0.00 30 1001.3
20260505092336 66 350 3.0 12.0 0.00 0.00 0.00 31 1001.0
20260505091339 66 250 2.0 11.0 0.00 0.00 0.00 35 1000.9
20260505090313 66 152 1.0 11.0 0.00 0.00 0.00 38 1000.6
20260505085329 67 158 2.0 8.0 0.00 0.00 0.00 36 1000.4
20260505084313 67 236 4.0 11.0 0.00 0.00 0.00 36 1000.4
20260505083315 68 223 4.0 13.0 0.00 0.00 0.00 37 1000.4
20260505082338 69 84 5.0 14.0 0.00 0.00 0.00 37 1000.3
20260505081320 69 49 3.0 15.0 0.00 0.00 0.00 37 1000.2
20260505080321 70 112 5.0 10.0 0.00 0.00 0.00 35 1000.1
20260505075316 70 107 3.0 9.0 0.00 0.00 0.00 34 1000.0
20260505074335 71 118 5.0 13.0 0.00 0.00 0.00 33 999.8
20260505073336 72 97 3.0 9.0 0.00 0.00 0.00 29 999.8
20260505072339 72 86 4.0 11.0 0.00 0.00 0.00 25 999.7
20260505071337 73 134 1.0 7.0 0.00 0.00 0.00 22 999.5
20260505070337 73 280 2.0 8.0 0.00 0.00 0.00 21 999.4
20260505065327 72 68 4.0 12.0 0.00 0.00 0.00 20 999.4
20260505064350 73 141 2.0 8.0 0.00 0.00 0.00 16 999.2
20260505063349 73 105 2.0 10.0 0.00 0.00 0.00 14 999.2
20260505062330 73 187 1.0 8.0 0.00 0.00 0.00 12 999.2
20260505061351 74 72 3.0 10.0 0.00 0.00 0.00 11 999.1
20260505060352 74 136 2.0 10.0 0.00 0.00 0.00 12 999.0
20260505055352 74 194 3.0 9.0 0.00 0.00 0.00 11 999.0
20260505054332 74 110 2.0 7.0 0.00 0.00 0.00 12 998.9
20260505053334 74 124 3.0 9.0 0.00 0.00 0.00 12 998.9
20260505052328 74 326 3.0 9.0 0.00 0.00 0.00 13 998.9
20260505051313 74 27 0.0 5.0 0.00 0.00 0.00 10 999.0
20260505050314 75 50 0.0 5.0 0.00 0.00 0.00 9 999.2
20260505041315 74 100 1.0 7.0 0.00 0.00 0.00 11 999.4
20260505040332 73 325 1.0 6.0 0.00 0.00 0.00 12 999.4
20260505035329 73 281 0.0 4.0 0.00 0.00 0.00 12 999.4
20260505034353 73 162 1.0 5.0 0.00 0.00 0.00 12 999.4
20260505033314 73 226 0.0 5.0 0.00 0.00 0.00 11 999.4
20260505032338 73 110 1.0 3.0 0.00 0.00 0.00 12 999.5
20260505031320 72 255 1.0 5.0 0.00 0.00 0.00 12 999.5
20260505030319 71 67 4.0 9.0 0.00 0.00 0.00 12 999.6
20260505025333 71 300 2.0 6.0 0.00 0.00 0.00 13 999.5
20260505024332 71 150 1.0 6.0 0.00 0.00 0.00 14 999.5
20260505023313 70 106 2.0 9.0 0.00 0.00 0.00 14 999.6
20260505022314 70 351 3.0 8.0 0.00 0.00 0.00 13 999.6
20260505021316 69 329 3.0 10.0 0.00 0.00 0.00 14 999.8
20260505020318 70 308 2.0 6.0 0.00 0.00 0.00 14 999.8
20260505015331 69 343 2.0 7.0 0.00 0.00 0.00 15 999.8
20260505014333 69 345 3.0 8.0 0.00 0.00 0.00 15 999.7
20260505013353 69 116 3.0 8.0 0.00 0.00 0.00 15 999.7
20260505012316 68 101 2.0 11.0 0.00 0.00 0.00 16 999.5
20260505011317 68 278 3.0 6.0 0.00 0.00 0.00 17 999.6
20260505010315 68 298 3.0 7.0 0.00 0.00 0.00 17 999.8
20260505005332 67 314 2.0 8.0 0.00 0.00 0.00 18 999.6
20260505004315 66 266 3.0 9.0 0.00 0.00 0.00 19 999.7
20260505003335 66 326 2.0 8.0 0.00 0.00 0.00 20 999.5
20260505002317 65 326 4.0 11.0 0.00 0.00 0.00 21 999.3
20260505001341 64 133 5.0 12.0 0.00 0.00 0.00 22 999.2
20260505000317 64 340 7.0 12.0 0.00 0.00 0.00 22 999.4
20260504235333 64 343 7.0 13.0 0.00 0.00 0.00 22 999.2
20260504234312 64 298 4.0 10.0 0.00 0.00 0.00 22 999.5
20260504233316 63 287 7.0 12.0 0.00 0.00 0.00 23 999.4
20260504232319 63 314 4.0 12.0 0.00 0.00 0.00 24 999.4
20260504231319 62 312 2.0 10.0 0.00 0.00 0.00 25 999.4
20260504230321 62 339 4.0 11.0 0.00 0.00 0.00 26 999.2
20260504225314 62 315 1.0 9.0 0.00 0.00 0.00 27 999.2
20260504224334 62 293 2.0 14.0 0.00 0.00 0.00 27 999.0
20260504223334 61 339 3.0 10.0 0.00 0.00 0.00 28 998.9
20260504222334 61 323 3.0 12.0 0.00 0.00 0.00 29 998.8
20260504221331 60 319 6.0 15.0 0.00 0.00 0.00 29 998.8
20260504220400 60 319 6.0 14.0 0.00 0.00 0.00 30 998.7
20260504215335 59 314 5.0 11.0 0.00 0.00 0.00 32 998.6
20260504214330 59 359 3.0 13.0 0.00 0.00 0.00 32 998.4
20260504213314 59 352 5.0 15.0 0.00 0.00 0.00 32 998.3
20260504212315 59 322 4.0 10.0 0.00 0.00 0.00 32 998.2
20260504211318 59 5 3.0 9.0 0.00 0.00 0.00 33 998.0
20260504210313 58 330 3.0 9.0 0.00 0.00 0.00 33 997.7
20260504205334 58 332 6.0 13.0 0.00 0.00 0.00 33 997.4
20260504203327 0 0.0 0.0 0.00 0.00 0.00 997.0
20260504202313 67 94 327.0 0.0 0.00 0.00 0.00 996.7
20260504201318 0 0.0 0.0 0.00 0.00 0.00 996.6
20260504200351 0 0.0 0.0 0.00 0.00 0.00 996.4
20260504194316 0 0.0 0.0 0.00 0.00 0.00 995.8
20260504193322 0 0.0 0.0 0.00 0.00 0.00 995.6
20260504192318 0 0.0 0.0 0.00 0.00 0.00 995.3
20260504191324 0 0.0 0.0 0.00 0.00 0.00 995.0
20260504190329 0 0.0 0.0 0.00 0.00 0.00 994.8
20260504185321 0 0.0 0.0 0.00 0.00 0.00 994.6
20260504183322 0 0.0 0.0 0.00 0.00 0.00 994.3
20260504182326 0 0.0 0.0 0.00 0.00 0.00 994.0
20260504181332 0 0.0 0.0 0.00 0.00 0.00 993.9
20260504180331 0 0.0 0.0 0.00 0.00 0.00 993.8
20260504175328 58 360 4.0 10.0 0.00 0.00 0.00 36 993.7
20260504174347 58 287 4.0 10.0 0.00 0.00 0.00 36 993.2
20260504173347 58 312 6.0 12.0 0.00 0.00 0.00 37 992.9
20260504172323 58 236 5.0 17.0 0.00 0.00 0.00 37 992.6
20260504171327 58 313 3.0 11.0 0.00 0.00 0.00 37 992.4
20260504170313 58 186 6.0 16.0 0.00 0.00 0.00 36 992.2
20260504160325 59 307 5.0 19.0 0.00 0.00 0.00 35 991.0
20260504150328 62 315 3.0 16.0 0.00 0.00 0.00 35 989.3
20260504141314 64 144 1.0 12.0 0.00 0.00 0.00 35 988.2